KE5BCK Weather Reports


time (UTC)temp
F
wind
direction
speed
knots
gust
knots
rain 1hr
in
rain 24hr
in
rain mn
in
humidity
%
barometer
mb
20260506204552 68 20 2.6 11.3 0.00 0.00 0.00 68 1012.6
20260506203048 69 28 1.7 13.9 0.00 0.00 0.00 69 1012.5
20260506201547 68 34 3.5 12.2 0.00 0.00 0.00 69 1012.3
20260506200147 69 28 4.3 13.9 0.00 0.00 0.00 69 1012.2
20260506194546 70 296 1.7 13.9 0.00 0.00 0.00 70 1012.0
20260506193044 72 349 2.6 10.4 0.00 0.00 0.00 67 1011.9
20260506191551 74 15 1.7 11.3 0.00 0.00 0.00 70 1011.8
20260506190142 74 350 1.7 9.6 0.00 0.00 0.00 69 1012.2
20260506184548 76 32 0.9 8.7 0.00 0.00 0.00 67 1012.0
20260506183050 77 11 1.7 7.0 0.00 0.00 0.00 68 1011.8
20260506181554 76 27 0.9 4.3 0.00 0.00 0.00 68 1011.8
20260506180141 74 82 0.0 7.0 0.00 0.00 0.00 70 1011.7
20260506174646 73 5 2.6 7.8 0.00 0.00 0.00 71 1011.6
20260506173052 71 86 0.9 7.0 0.00 0.00 0.00 73 1011.8
20260506171544 70 73 2.6 9.6 0.00 0.00 0.00 73 1011.8
20260506170141 69 74 0.9 5.2 0.00 0.00 0.00 77 1011.5
20260506164542 66 46 0.9 7.0 0.00 0.00 0.00 81 1012.3
20260506163044 63 65 1.7 7.0 0.00 0.00 0.00 87 1012.3
20260506161540 63 39 3.5 12.2 0.00 0.00 0.00 85 1013.2
20260506160136 64 61 8.7 16.5 0.00 0.00 0.00 85 1013.0
20260506154542 66 64 3.5 12.2 0.00 0.00 0.00 83 1012.8
20260506153038 69 272 1.7 10.4 0.00 0.00 0.00 80 1012.4
20260506151534 75 71 3.5 12.2 0.00 0.00 0.00 72 1011.8
20260506150008 76 198 0.0 3.5 0.00 0.00 0.00 82 1011.3
20260506144502 76 142 0.9 4.3 0.00 0.00 0.00 82 1010.6
20260506143058 76 193 0.0 5.2 0.00 0.00 0.00 83 1010.4
20260506141554 76 143 1.7 6.1 0.00 0.00 0.00 83 1009.9
20260506140000 75 140 1.7 4.3 0.00 0.00 0.00 84 1010.5
20260506134603 75 134 0.0 4.3 0.00 0.00 0.00 85 1009.9
20260506133059 75 136 0.0 3.5 0.00 0.00 0.00 85 1010.0
20260506131550 74 122 1.7 4.3 0.00 0.00 0.00 86 1009.7
20260506130148 74 86 1.7 5.2 0.00 0.00 0.00 86 1009.6
20260506124549 73 136 0.9 6.1 0.00 0.00 0.00 87 1009.4
20260506123047 73 132 0.9 2.6 0.00 0.00 0.00 87 1009.3
20260506121546 73 198 0.0 0.0 0.00 0.00 0.00 88 1009.4
20260506120148 73 198 0.0 0.0 0.00 0.00 0.00 87 1009.4
20260506114547 73 204 0.0 0.0 0.00 0.00 0.00 87 1009.2
20260506113046 73 204 0.0 2.6 0.00 0.00 0.00 87 1009.4
20260506111544 73 186 0.0 0.0 0.00 0.00 0.00 87 1009.3
20260506110146 73 186 0.0 0.0 0.00 0.00 0.00 87 1009.3
20260506104548 73 186 0.0 2.6 0.00 0.00 0.00 86 1009.2
20260506103043 74 173 0.0 1.7 0.00 0.00 0.00 86 1009.0
20260506101542 74 176 0.0 0.0 0.00 0.00 0.00 86 1009.0
20260506100140 74 177 0.0 6.1 0.00 0.00 0.00 86 1008.8
20260506094540 74 199 0.0 3.5 0.00 0.00 0.00 86 1008.5
20260506093042 74 171 1.7 4.3 0.00 0.00 0.00 86 1008.3
20260506091542 74 213 2.6 5.2 0.00 0.00 0.00 86 1008.2
20260506090139 74 172 1.7 7.8 0.00 0.00 0.00 86 1007.9
20260506084638 74 215 0.9 5.2 0.00 0.00 0.00 86 1008.0
20260506083041 74 194 0.0 5.2 0.00 0.00 0.00 86 1008.1
20260506081536 74 175 0.0 7.0 0.00 0.00 0.00 86 1008.0
20260506080134 74 206 1.7 5.2 0.00 0.00 0.00 86 1008.1
20260506073036 74 177 0.9 9.6 0.00 0.00 0.00 85 1008.4
20260506071534 74 130 1.7 7.8 0.00 0.00 0.00 85 1008.6
20260506070133 74 212 1.7 7.8 0.00 0.00 0.00 85 1008.6
20260506061547 74 188 2.6 9.6 0.00 0.00 0.00 84 1008.7
20260506060145 74 200 2.6 7.8 0.00 0.00 0.00 85 1008.5
20260506050144 75 164 0.9 4.3 0.00 0.00 0.00 84 1008.6
20260506044548 75 175 2.6 7.8 0.00 0.00 0.00 84 1008.6
20260506043041 75 124 0.9 6.1 0.00 0.00 0.00 83 1008.7
20260506041550 75 117 2.6 8.7 0.00 0.00 0.00 83 1008.5
20260506040139 75 159 0.0 7.8 0.00 0.00 0.00 83 1008.3
20260506034541 76 184 1.7 7.0 0.00 0.00 0.00 82 1008.1
20260506033039 76 225 1.7 7.0 0.00 0.00 0.00 82 1008.1
20260506031539 76 191 0.0 5.2 0.00 0.00 0.00 81 1008.0
20260506030137 76 164 0.9 6.1 0.00 0.00 0.00 80 1007.8
20260506024537 77 146 0.9 6.1 0.00 0.00 0.00 79 1007.6
20260506023036 77 135 0.9 3.5 0.00 0.00 0.00 78 1007.3
20260506021546 77 155 0.9 4.3 0.00 0.00 0.00 77 1006.9
20260506020134 77 143 0.9 4.3 0.00 0.00 0.00 77 1006.5
20260506014554 77 148 0.9 5.2 0.00 0.00 0.00 77 1006.4
20260506013100 78 145 0.0 4.3 0.00 0.00 0.00 76 1006.4
20260506011620 79 186 0.9 3.5 0.00 0.00 0.00 75 1006.4
20260506010153 79 175 0.9 2.6 0.00 0.00 0.00 74 1006.5
20260506004550 80 156 0.0 1.7 0.00 0.00 0.00 73 1006.6
20260506003050 80 212 0.9 5.2 0.00 0.00 0.00 71 1006.6
20260506001549 81 118 0.9 6.1 0.00 0.00 0.00 71 1006.5
20260506000150 81 166 0.0 1.7 0.00 0.00 0.00 70 1006.6
20260505234548 81 199 1.7 7.8 0.00 0.00 0.00 69 1006.2
20260505233048 82 175 0.9 7.0 0.00 0.00 0.00 68 1006.2
20260505231547 82 211 1.7 6.1 0.00 0.00 0.00 68 1006.1
20260505230146 82 194 1.7 5.2 0.00 0.00 0.00 67 1006.1
20260505224544 83 107 1.7 7.8 0.00 0.00 0.00 66 1006.1
20260505223045 83 146 2.6 7.8 0.00 0.00 0.00 65 1006.0
20260505221551 83 215 3.5 13.0 0.00 0.00 0.00 64 1005.8
20260505220142 83 116 1.7 8.7 0.00 0.00 0.00 65 1005.9
20260505214552 84 136 1.7 7.0 0.00 0.00 0.00 63 1006.3
20260505213045 84 192 1.7 12.2 0.00 0.00 0.00 64 1006.2
20260505211543 84 157 1.7 8.7 0.00 0.00 0.00 64 1006.5
20260505210139 84 181 1.7 10.4 0.00 0.00 0.00 65 1006.6